Hourly Weather Cetula

Today, 16 June, Wednesday

Time Temperature Precipitation Wind Pressure Humidity
00:00 +15°C° 0 mm 1 mps 745 mmHg 79%
01:00 +15°C° 0 mm 1 mps 745 mmHg 81%
02:00 +14°C° 0 mm 1 mps 745 mmHg 81%
03:00 +14°C° 0 mm 1 mps 745 mmHg 82%
04:00 +14°C° 0 mm 1 mps 745 mmHg 83%
05:00 +14°C° 0 mm 1 mps 745 mmHg 84%
06:00 +16°C° 0 mm 1 mps 746 mmHg 80%
07:00 +19°C° 0 mm 1 mps 746 mmHg 75%
08:00 +21°C° 0 mm 1 mps 746 mmHg 70%
09:00 +22°C° 0.1 mm 1 mps 746 mmHg 67%
10:00 +23°C° 0.1 mm 2 mps 746 mmHg 64%
11:00 +24°C° 0.1 mm 2 mps 746 mmHg 61%
12:00 +25°C° 0.1 mm 2 mps 746 mmHg 57%
13:00 +26°C° 0.1 mm 2 mps 746 mmHg 54%
14:00 +27°C° 0.1 mm 2 mps 746 mmHg 50%
15:00 +26°C° 0 mm 3 mps 746 mmHg 55%
16:00 +26°C° 0 mm 3 mps 746 mmHg 60%
17:00 +25°C° 0 mm 3 mps 745 mmHg 65%
18:00 +24°C° 0.1 mm 3 mps 746 mmHg 70%
19:00 +21°C° 0.1 mm 3 mps 746 mmHg 75%
20:00 +20°C° 0.1 mm 2 mps 746 mmHg 81%
21:00 +19°C° 0 mm 2 mps 746 mmHg 84%
22:00 +18°C° 0 mm 2 mps 747 mmHg 88%
23:00 +17°C° 0 mm 2 mps 747 mmHg 91%

Tomorrow, 17 June, Thursday

Time Temperature Precipitation Wind Pressure Humidity
00:00 +16°C° 0 mm 2 mps 747 mmHg 91%
01:00 +16°C° 0 mm 2 mps 747 mmHg 92%
02:00 +15°C° 0 mm 2 mps 747 mmHg 92%
03:00 +15°C° 0 mm 2 mps 747 mmHg 92%
04:00 +15°C° 0 mm 2 mps 747 mmHg 92%
05:00 +14°C° 0 mm 2 mps 747 mmHg 91%
06:00 +16°C° 0 mm 2 mps 748 mmHg 84%
07:00 +18°C° 0 mm 2 mps 748 mmHg 78%
08:00 +19°C° 0 mm 2 mps 748 mmHg 71%
09:00 +21°C° 0 mm 2 mps 748 mmHg 65%
10:00 +23°C° 0 mm 2 mps 749 mmHg 60%
11:00 +24°C° 0 mm 3 mps 749 mmHg 55%
12:00 +25°C° 0 mm 3 mps 749 mmHg 52%
13:00 +26°C° 0 mm 3 mps 748 mmHg 50%
14:00 +26°C° 0 mm 3 mps 748 mmHg 47%
15:00 +26°C° 0 mm 3 mps 748 mmHg 50%
16:00 +26°C° 0 mm 3 mps 748 mmHg 53%
17:00 +26°C° 0 mm 4 mps 748 mmHg 56%
18:00 +25°C° 0 mm 3 mps 748 mmHg 64%
19:00 +24°C° 0 mm 3 mps 748 mmHg 73%
20:00 +21°C° 0 mm 3 mps 748 mmHg 81%
21:00 +20°C° 0 mm 2 mps 748 mmHg 84%
22:00 +19°C° 0 mm 2 mps 748 mmHg 87%
23:00 +18°C° 0 mm 2 mps 749 mmHg 91%

Day after tomorrow, 18 June, Friday

Time Temperature Precipitation Wind Pressure Humidity
00:00 +18°C° 0 mm 2 mps 748 mmHg 91%
01:00 +17°C° 0 mm 2 mps 748 mmHg 92%
02:00 +17°C° 0 mm 2 mps 748 mmHg 93%
03:00 +17°C° 0 mm 2 mps 748 mmHg 93%
04:00 +17°C° 0 mm 3 mps 748 mmHg 94%
05:00 +17°C° 0 mm 3 mps 748 mmHg 94%
06:00 +18°C° 0 mm 3 mps 748 mmHg 88%
07:00 +20°C° 0 mm 4 mps 748 mmHg 82%
08:00 +22°C° 0 mm 5 mps 749 mmHg 77%
09:00 +23°C° 0 mm 5 mps 748 mmHg 72%
10:00 +26°C° 0 mm 5 mps 748 mmHg 67%
11:00 +27°C° 0 mm 6 mps 748 mmHg 62%
12:00 +28°C° 0 mm 6 mps 748 mmHg 60%
13:00 +28°C° 0 mm 6 mps 748 mmHg 58%
14:00 +29°C° 0 mm 5 mps 748 mmHg 55%
15:00 +29°C° 0 mm 5 mps 747 mmHg 57%
16:00 +29°C° 0 mm 5 mps 747 mmHg 60%
17:00 +28°C° 0 mm 5 mps 747 mmHg 62%
18:00 +27°C° 0 mm 5 mps 747 mmHg 67%
19:00 +25°C° 0 mm 4 mps 747 mmHg 73%
20:00 +23°C° 0 mm 4 mps 747 mmHg 79%
21:00 +22°C° 0 mm 4 mps 747 mmHg 82%
22:00 +21°C° 0 mm 4 mps 748 mmHg 86%
23:00 +20°C° 0 mm 4 mps 748 mmHg 89%

19 June, Saturday

Time Temperature Precipitation Wind Pressure Humidity
00:00 +19°C° 0 mm 3 mps 748 mmHg 91%
01:00 +19°C° 0 mm 3 mps 748 mmHg 93%
02:00 +18°C° 0 mm 3 mps 747 mmHg 95%
03:00 +18°C° 0 mm 3 mps 747 mmHg 95%
04:00 +18°C° 0 mm 3 mps 747 mmHg 96%
05:00 +17°C° 0 mm 3 mps 747 mmHg 96%
06:00 +19°C° 0 mm 4 mps 748 mmHg 90%
07:00 +21°C° 0 mm 5 mps 748 mmHg 84%
08:00 +22°C° 0 mm 6 mps 748 mmHg 78%
09:00 +23°C° 0 mm 6 mps 748 mmHg 73%
10:00 +24°C° 0 mm 6 mps 748 mmHg 67%
11:00 +27°C° 0 mm 7 mps 748 mmHg 62%
12:00 +27°C° 0 mm 6 mps 748 mmHg 60%
13:00 +28°C° 0 mm 6 mps 747 mmHg 58%
14:00 +29°C° 0 mm 6 mps 747 mmHg 56%
15:00 +28°C° 0 mm 5 mps 747 mmHg 58%
16:00 +28°C° 0 mm 5 mps 747 mmHg 60%
17:00 +28°C° 0 mm 5 mps 747 mmHg 62%
18:00 +26°C° 0 mm 4 mps 747 mmHg 69%
19:00 +23°C° 0 mm 4 mps 747 mmHg 76%
20:00 +22°C° 0 mm 4 mps 747 mmHg 82%
21:00 +21°C° 0 mm 3 mps 747 mmHg 86%
22:00 +20°C° 0 mm 3 mps 747 mmHg 91%
23:00 +19°C° 0 mm 3 mps 747 mmHg 95%

20 June, Sunday

Time Temperature Precipitation Wind Pressure Humidity
00:00 +18°C° 0 mm 3 mps 747 mmHg 95%
01:00 +18°C° 0 mm 3 mps 747 mmHg 95%
02:00 +17°C° 0 mm 3 mps 747 mmHg 96%
03:00 +17°C° 0 mm 3 mps 747 mmHg 96%
04:00 +17°C° 0 mm 3 mps 747 mmHg 96%
05:00 +17°C° 0 mm 3 mps 747 mmHg 96%
06:00 +19°C° 0 mm 4 mps 747 mmHg 90%
07:00 +20°C° 0 mm 4 mps 747 mmHg 84%
08:00 +22°C° 0 mm 5 mps 747 mmHg 78%
09:00 +23°C° 0 mm 5 mps 747 mmHg 73%
10:00 +26°C° 0 mm 6 mps 747 mmHg 67%
11:00 +27°C° 0 mm 6 mps 746 mmHg 62%
12:00 +28°C° 0 mm 6 mps 746 mmHg 59%
13:00 +28°C° 0 mm 6 mps 746 mmHg 56%
14:00 +29°C° 0 mm 6 mps 746 mmHg 53%
15:00 +29°C° 0 mm 6 mps 745 mmHg 57%
16:00 +28°C° 0 mm 6 mps 745 mmHg 60%
17:00 +28°C° 0 mm 6 mps 745 mmHg 63%
18:00 +27°C° 0 mm 5 mps 745 mmHg 69%
19:00 +25°C° 0 mm 4 mps 745 mmHg 74%
20:00 +23°C° 0 mm 4 mps 745 mmHg 79%
21:00 +22°C° 0 mm 4 mps 745 mmHg 83%
22:00 +21°C° 0 mm 4 mps 745 mmHg 86%
23:00 +20°C° 0 mm 4 mps 745 mmHg 90%

21 June, Monday

Time Temperature Precipitation Wind Pressure Humidity
00:00 +20°C° 0 mm 4 mps 745 mmHg 90%
01:00 +19°C° 0 mm 4 mps 745 mmHg 90%
02:00 +19°C° 0 mm 4 mps 744 mmHg 90%
03:00 +19°C° 0 mm 4 mps 744 mmHg 91%
04:00 +18°C° 0 mm 4 mps 744 mmHg 93%
05:00 +18°C° 0 mm 3 mps 744 mmHg 94%
06:00 +19°C° 0 mm 4 mps 744 mmHg 87%
07:00 +21°C° 0 mm 5 mps 744 mmHg 81%
08:00 +23°C° 0 mm 5 mps 744 mmHg 74%
09:00 +25°C° 0 mm 5 mps 744 mmHg 68%
10:00 +26°C° 0 mm 6 mps 744 mmHg 62%
11:00 +27°C° 0 mm 6 mps 744 mmHg 56%
12:00 +28°C° 0 mm 6 mps 744 mmHg 54%
13:00 +29°C° 0 mm 6 mps 743 mmHg 53%
14:00 +29°C° 0 mm 6 mps 743 mmHg 51%
15:00 +29°C° 0 mm 6 mps 743 mmHg 53%
16:00 +29°C° 0 mm 5 mps 743 mmHg 55%
17:00 +29°C° 0 mm 5 mps 743 mmHg 57%
18:00 +27°C° 0 mm 4 mps 742 mmHg 65%
19:00 +26°C° 0 mm 4 mps 742 mmHg 73%
20:00 +23°C° 0 mm 4 mps 742 mmHg 80%
21:00 +22°C° 0 mm 3 mps 742 mmHg 84%
22:00 +21°C° 0 mm 3 mps 741 mmHg 87%
23:00 +20°C° 0 mm 3 mps 741 mmHg 91%
Show more

We Need Your Consent

Meteoprog and our Service Providers may store and access personal data such as cookies, device identifiers or other similar technologies on your device and process such data to personalise content and ads, as well as provide social media features and to analyse the traffic.

  • Store and/or access information on your device

    Cookies, device identifiers or other information can be stored or accessed on your device for the purposes indicated above.

  • Personalised ads and content, ad and content measurement, audience insights, and products development

    Ads and content can be personalised based on a profile. More data can be added to better personalise ads and content. Ad and content performance can be measured. Insights about the audience who saw the ads and content can be derived. Such data can be used to develop or improve user’s experience, systems and software.

By clicking ‘I Agree’ you will allow the use of indicated cookies, device identifiers, web beacons or other similar technologies. Your settings can be changed in the browser on your device.

For certain purposes, legitimate interests may be relied on, rather than consent. You can read more about this in our Privacy and Cookie Policy.